Time,TemperatureF,DewpointF,PressureIn,WindDirection,WindDirectionDegrees,WindSpeedMPH,WindSpeedGustMPH,Humidity,HourlyPrecipIn,Conditions,Clouds,dailyrainin,SoftwareType,DateUTC
2013-01-21 00:02:00,36.5,16.1,29.35,NNW,337,0.0,0.0,43,0.00,,---,0.00,VWS V14.00,2013-01-21 06:02:00,
2013-01-21 00:04:00,36.5,16.1,29.35,NNW,337,0.0,0.0,43,0.00,,---,0.00,VWS V14.00,2013-01-21 06:04:00,
2013-01-21 00:05:00,36.5,16.1,29.35,NNW,337,0.0,0.0,43,0.00,,---,0.00,VWS V14.00,2013-01-21 06:05:00,
2013-01-21 00:11:00,36.5,16.1,29.35,WSW,249,0.0,0.0,43,0.00,,---,0.00,VWS V14.00,2013-01-21 06:11:00,
2013-01-21 00:14:00,36.5,16.1,29.35,WSW,249,0.0,0.0,43,0.00,,---,0.00,VWS V14.00,2013-01-21 06:14:00,
2013-01-21 00:19:00,36.5,16.1,29.35,WNW,282,0.0,0.0,43,0.00,,---,0.00,VWS V14.00,2013-01-21 06:19:00,
2013-01-21 00:20:00,36.5,16.1,29.35,WNW,282,0.0,0.0,43,0.00,,---,0.00,VWS V14.00,2013-01-21 06:20:00,
2013-01-21 00:23:00,36.5,16.1,29.35,North,9,0.0,2.7,43,0.00,,---,0.00,VWS V14.00,2013-01-21 06:23:00,
2013-01-21 00:26:00,36.5,16.1,29.35,North,9,0.0,2.7,43,0.00,,---,0.00,VWS V14.00,2013-01-21 06:26:00,
2013-01-21 00:32:00,34.9,15.2,29.35,North,6,2.7,3.1,44,0.00,,---,0.00,VWS V14.00,2013-01-21 06:32:00,
2013-01-21 00:35:00,34.9,15.2,29.35,North,0,0.0,0.0,44,0.00,,---,0.00,VWS V14.00,2013-01-21 06:35:00,
2013-01-21 00:38:00,34.3,14.7,29.35,WNW,285,0.0,0.0,44,0.00,,---,0.00,VWS V14.00,2013-01-21 06:38:00,
2013-01-21 00:41:00,34.3,14.7,29.35,NW,321,0.0,3.6,44,0.00,,---,0.00,VWS V14.00,2013-01-21 06:41:00,
2013-01-21 00:44:00,34.3,14.7,29.35,NNE,12,2.7,3.6,44,0.00,,---,0.00,VWS V14.00,2013-01-21 06:44:00,
2013-01-21 00:47:00,34.0,14.4,29.35,NNE,12,2.7,3.6,44,0.00,,---,0.00,VWS V14.00,2013-01-21 06:47:00,
2013-01-21 00:49:00,34.0,14.4,29.35,ENE,65,0.0,3.6,44,0.00,,---,0.00,VWS V14.00,2013-01-21 06:49:00,
2013-01-21 00:56:00,33.6,14.0,29.35,NW,326,2.2,2.2,44,0.00,,---,0.00,VWS V14.00,2013-01-21 06:56:00,
2013-01-21 00:59:00,33.6,14.0,29.38,NNE,15,2.2,2.2,44,0.00,,---,0.00,VWS V14.00,2013-01-21 06:59:00,
2013-01-21 01:02:00,33.6,14.0,29.38,NNE,15,2.2,2.2,44,0.00,,---,0.00,VWS V14.00,2013-01-21 07:02:00,
2013-01-21 01:05:00,33.1,13.5,29.38,SW,225,0.0,0.0,44,0.00,,---,0.00,VWS V14.00,2013-01-21 07:05:00,
2013-01-21 01:11:00,33.1,13.5,29.38,North,11,0.0,4.9,44,0.00,,---,0.00,VWS V14.00,2013-01-21 07:11:00,
2013-01-21 01:14:00,33.1,13.5,29.38,NNE,25,0.0,4.9,44,0.00,,---,0.00,VWS V14.00,2013-01-21 07:14:00,
2013-01-21 01:20:00,33.1,13.5,29.38,North,6,0.0,0.0,44,0.00,,---,0.00,VWS V14.00,2013-01-21 07:20:00,
2013-01-21 01:26:00,33.1,13.5,29.38,ESE,108,0.0,0.0,44,0.00,,---,0.00,VWS V14.00,2013-01-21 07:26:00,
2013-01-21 01:32:00,32.3,12.9,29.38,SW,217,2.7,2.7,44,0.00,,---,0.00,VWS V14.00,2013-01-21 07:32:00,
2013-01-21 01:35:00,32.0,12.6,29.38,North,0,0.0,0.0,44,0.00,,---,0.00,VWS V14.00,2013-01-21 07:35:00,
2013-01-21 01:38:00,32.0,12.6,29.38,North,349,0.0,0.0,44,0.00,,---,0.00,VWS V14.00,2013-01-21 07:38:00,
2013-01-21 01:45:00,32.0,12.6,29.38,North,0,2.7,2.7,44,0.00,,---,0.00,VWS V14.00,2013-01-21 07:45:00,
2013-01-21 01:48:00,31.6,12.7,29.38,NW,307,2.2,2.7,45,0.00,,---,0.00,VWS V14.00,2013-01-21 07:48:00,
2013-01-21 01:54:00,31.6,12.7,29.38,North,8,0.0,0.0,45,0.00,,---,0.00,VWS V14.00,2013-01-21 07:54:00,
2013-01-21 01:57:00,31.6,12.7,29.38,North,11,0.0,0.0,45,0.00,,---,0.00,VWS V14.00,2013-01-21 07:57:00,
2013-01-21 02:00:00,31.6,12.7,29.38,North,11,0.0,0.0,45,0.00,,---,0.00,VWS V14.00,2013-01-21 08:00:00,
2013-01-21 02:03:00,31.3,12.9,29.38,North,4,0.0,0.0,46,0.00,,---,0.00,VWS V14.00,2013-01-21 08:03:00,
2013-01-21 02:04:00,31.3,12.9,29.38,North,4,0.0,0.0,46,0.00,,---,0.00,VWS V14.00,2013-01-21 08:04:00,
2013-01-21 02:09:00,31.1,12.7,29.38,North,6,0.0,0.0,46,0.00,,---,0.00,VWS V14.00,2013-01-21 08:09:00,
2013-01-21 02:15:00,30.7,11.9,29.41,NNE,32,0.0,0.0,45,0.00,,---,0.00,VWS V14.00,2013-01-21 08:15:00,
2013-01-21 02:18:00,30.7,11.9,29.41,North,350,0.0,0.0,45,0.00,,---,0.00,VWS V14.00,2013-01-21 08:18:00,
2013-01-21 02:19:00,30.5,12.2,29.41,North,350,0.0,0.0,46,0.00,,---,0.00,VWS V14.00,2013-01-21 08:19:00,
2013-01-21 02:24:00,30.5,12.2,29.41,North,4,0.0,0.0,46,0.00,,---,0.00,VWS V14.00,2013-01-21 08:24:00,
2013-01-21 02:30:00,30.5,12.2,29.41,SW,232,0.0,0.0,46,0.00,,---,0.00,VWS V14.00,2013-01-21 08:30:00,
2013-01-21 02:34:00,30.5,12.2,29.41,North,5,0.0,0.0,46,0.00,,---,0.00,VWS V14.00,2013-01-21 08:34:00,
2013-01-21 02:37:00,30.4,12.1,29.41,ENE,59,0.0,0.0,46,0.00,,---,0.00,VWS V14.00,2013-01-21 08:37:00,
2013-01-21 02:40:00,30.4,12.1,29.41,ENE,78,0.0,0.0,46,0.00,,---,0.00,VWS V14.00,2013-01-21 08:40:00,
2013-01-21 02:43:00,30.4,12.1,29.41,NNW,339,0.0,0.0,46,0.00,,---,0.00,VWS V14.00,2013-01-21 08:43:00,
2013-01-21 02:46:00,30.4,12.1,29.41,ENE,76,0.0,0.0,46,0.00,,---,0.00,VWS V14.00,2013-01-21 08:46:00,
2013-01-21 02:49:00,30.4,12.1,29.41,East,85,0.0,0.0,46,0.00,,---,0.00,VWS V14.00,2013-01-21 08:49:00,
2013-01-21 02:52:00,30.4,12.1,29.41,East,85,0.0,0.0,46,0.00,,---,0.00,VWS V14.00,2013-01-21 08:52:00,
2013-01-21 02:55:00,30.5,12.2,29.41,West,270,0.0,3.1,46,0.00,,---,0.00,VWS V14.00,2013-01-21 08:55:00,
2013-01-21 03:01:00,30.5,12.2,29.41,North,357,0.0,3.1,46,0.00,,---,0.00,VWS V14.00,2013-01-21 09:01:00,
2013-01-21 03:04:00,30.5,12.2,29.41,North,4,0.0,3.1,46,0.00,,---,0.00,VWS V14.00,2013-01-21 09:04:00,
2013-01-21 03:07:00,30.5,12.2,29.41,NNW,346,0.0,0.0,46,0.00,,---,0.00,VWS V14.00,2013-01-21 09:07:00,
2013-01-21 03:10:00,30.4,12.1,29.41,WNW,298,0.0,0.0,46,0.00,,---,0.00,VWS V14.00,2013-01-21 09:10:00,
2013-01-21 03:19:00,30.2,11.4,29.41,NNE,12,0.0,2.2,45,0.00,,---,0.00,VWS V14.00,2013-01-21 09:19:00,
2013-01-21 03:23:00,30.2,11.4,29.41,SSW,210,2.7,2.7,45,0.00,,---,0.00,VWS V14.00,2013-01-21 09:23:00,
2013-01-21 03:26:00,30.0,11.2,29.41,NNW,341,0.0,2.7,45,0.00,,---,0.00,VWS V14.00,2013-01-21 09:26:00,
2013-01-21 03:29:00,30.0,11.2,29.41,North,2,0.0,2.7,45,0.00,,---,0.00,VWS V14.00,2013-01-21 09:29:00,
2013-01-21 03:32:00,30.0,11.2,29.41,NNE,15,2.2,2.7,45,0.00,,---,0.00,VWS V14.00,2013-01-21 09:32:00,
2013-01-21 03:34:00,30.0,11.2,29.41,NNE,15,2.2,2.7,45,0.00,,---,0.00,VWS V14.00,2013-01-21 09:34:00,
2013-01-21 03:38:00,30.0,11.2,29.41,North,11,0.0,2.2,45,0.00,,---,0.00,VWS V14.00,2013-01-21 09:38:00,
2013-01-21 03:44:00,29.5,10.8,29.44,NW,318,0.0,2.2,45,0.00,,---,0.00,VWS V14.00,2013-01-21 09:44:00,
2013-01-21 03:49:00,29.5,10.8,29.44,ESE,117,0.0,2.2,45,0.00,,---,0.00,VWS V14.00,2013-01-21 09:49:00,
2013-01-21 03:53:00,29.3,10.6,29.44,West,267,0.0,0.0,45,0.00,,---,0.00,VWS V14.00,2013-01-21 09:53:00,
2013-01-21 03:59:00,29.1,10.4,29.44,West,273,0.0,3.1,45,0.00,,---,0.00,VWS V14.00,2013-01-21 09:59:00,
2013-01-21 04:02:00,29.1,10.4,29.44,NE,41,2.7,3.1,45,0.00,,---,0.00,VWS V14.00,2013-01-21 10:02:00,
2013-01-21 04:05:00,29.1,10.4,29.44,North,0,0.0,3.1,45,0.00,,---,0.00,VWS V14.00,2013-01-21 10:05:00,
2013-01-21 04:08:00,28.9,10.3,29.44,WNW,296,0.0,0.0,45,0.00,,---,0.00,VWS V14.00,2013-01-21 10:08:00,
2013-01-21 04:11:00,28.9,10.3,29.44,NNW,341,2.7,2.7,45,0.00,,---,0.00,VWS V14.00,2013-01-21 10:11:00,
2013-01-21 04:14:00,28.9,10.3,29.44,NE,34,0.0,4.0,45,0.00,,---,0.00,VWS V14.00,2013-01-21 10:14:00,
2013-01-21 04:17:00,28.9,10.3,29.44,North,7,3.1,4.0,45,0.00,,---,0.00,VWS V14.00,2013-01-21 10:17:00,
2013-01-21 04:19:00,28.9,10.3,29.44,NNW,339,0.0,4.0,45,0.00,,---,0.00,VWS V14.00,2013-01-21 10:19:00,
2013-01-21 04:23:00,28.9,10.3,29.44,NNE,20,0.0,0.0,45,0.00,,---,0.00,VWS V14.00,2013-01-21 10:23:00,
2013-01-21 04:26:00,28.6,9.9,29.44,North,10,4.0,4.0,45,0.00,,---,0.00,VWS V14.00,2013-01-21 10:26:00,
2013-01-21 04:29:00,28.6,9.9,29.44,WNW,289,0.0,4.0,45,0.00,,---,0.00,VWS V14.00,2013-01-21 10:29:00,
2013-01-21 04:34:00,28.4,9.3,29.44,SSW,199,0.0,4.0,44,0.00,,---,0.00,VWS V14.00,2013-01-21 10:34:00,
2013-01-21 04:38:00,28.2,9.6,29.44,SSW,205,0.0,0.0,45,0.00,,---,0.00,VWS V14.00,2013-01-21 10:38:00,
2013-01-21 04:41:00,28.2,9.6,29.44,SSW,205,0.0,0.0,45,0.00,,---,0.00,VWS V14.00,2013-01-21 10:41:00,
2013-01-21 04:44:00,28.0,9.4,29.44,NW,321,0.0,2.2,45,0.00,,---,0.00,VWS V14.00,2013-01-21 10:44:00,
2013-01-21 04:47:00,28.0,9.4,29.44,NE,46,0.0,2.2,45,0.00,,---,0.00,VWS V14.00,2013-01-21 10:47:00,
2013-01-21 04:49:00,28.0,9.4,29.44,NE,46,0.0,2.2,45,0.00,,---,0.00,VWS V14.00,2013-01-21 10:49:00,
2013-01-21 04:50:00,28.0,9.4,29.44,NE,46,0.0,0.0,45,0.00,,---,0.00,VWS V14.00,2013-01-21 10:50:00,
2013-01-21 04:53:00,28.0,9.4,29.44,SW,219,3.1,3.1,45,0.00,,---,0.00,VWS V14.00,2013-01-21 10:53:00,
2013-01-21 04:56:00,27.8,9.3,29.44,SW,219,3.1,3.1,45,0.00,,---,0.00,VWS V14.00,2013-01-21 10:56:00,
2013-01-21 04:59:00,27.8,9.3,29.44,SW,219,3.1,3.1,45,0.00,,---,0.00,VWS V14.00,2013-01-21 10:59:00,
2013-01-21 05:04:00,27.8,9.3,29.44,North,357,3.6,3.6,45,0.00,,---,0.00,VWS V14.00,2013-01-21 11:04:00,
2013-01-21 05:05:00,27.8,9.3,29.44,North,357,3.6,3.6,45,0.00,,---,0.00,VWS V14.00,2013-01-21 11:05:00,
2013-01-21 05:11:00,27.7,9.1,29.44,NNE,15,0.0,3.6,45,0.00,,---,0.00,VWS V14.00,2013-01-21 11:11:00,
2013-01-21 05:14:00,27.7,9.1,29.44,NNE,15,0.0,3.6,45,0.00,,---,0.00,VWS V14.00,2013-01-21 11:14:00,
2013-01-21 05:17:00,27.5,9.4,29.44,NNE,15,0.0,3.6,46,0.00,,---,0.00,VWS V14.00,2013-01-21 11:17:00,
2013-01-21 05:19:00,27.3,9.3,29.44,SW,230,0.0,3.6,46,0.00,,---,0.00,VWS V14.00,2013-01-21 11:19:00,
2013-01-21 05:23:00,27.3,9.3,29.44,South,181,0.0,2.7,46,0.00,,---,0.00,VWS V14.00,2013-01-21 11:23:00,
2013-01-21 05:29:00,26.2,8.3,29.44,NNW,340,2.7,2.7,46,0.00,,---,0.00,VWS V14.00,2013-01-21 11:29:00,
2013-01-21 05:32:00,26.2,8.3,29.44,NNW,340,2.7,2.7,46,0.00,,---,0.00,VWS V14.00,2013-01-21 11:32:00,
2013-01-21 05:34:00,26.2,8.3,29.44,SW,225,2.7,2.7,46,0.00,,---,0.00,VWS V14.00,2013-01-21 11:34:00,
2013-01-21 05:35:00,26.2,8.3,29.44,SW,225,2.7,2.7,46,0.00,,---,0.00,VWS V14.00,2013-01-21 11:35:00,
2013-01-21 05:41:00,26.6,9.1,29.47,North,0,0.0,3.6,47,0.00,,---,0.00,VWS V14.00,2013-01-21 11:41:00,
2013-01-21 05:44:00,26.8,9.2,29.47,North,353,0.0,3.6,47,0.00,,---,0.00,VWS V14.00,2013-01-21 11:44:00,
2013-01-21 05:47:00,26.8,9.2,29.47,North,0,0.0,3.6,47,0.00,,---,0.00,VWS V14.00,2013-01-21 11:47:00,
2013-01-21 05:53:00,26.8,9.2,29.47,North,3,0.0,0.0,47,0.00,,---,0.00,VWS V14.00,2013-01-21 11:53:00,
2013-01-21 05:56:00,26.8,9.2,29.47,North,3,0.0,0.0,47,0.00,,---,0.00,VWS V14.00,2013-01-21 11:56:00,
2013-01-21 06:02:00,26.8,9.2,29.47,North,7,0.0,0.0,47,0.00,,---,0.00,VWS V14.00,2013-01-21 12:02:00,
2013-01-21 06:05:00,26.8,9.2,29.47,North,7,0.0,0.0,47,0.00,,---,0.00,VWS V14.00,2013-01-21 12:05:00,
2013-01-21 06:08:00,26.6,9.1,29.47,West,267,0.0,0.0,47,0.00,,---,0.00,VWS V14.00,2013-01-21 12:08:00,
2013-01-21 06:11:00,26.6,9.1,29.47,North,357,0.0,0.0,47,0.00,,---,0.00,VWS V14.00,2013-01-21 12:11:00,
2013-01-21 06:17:00,26.0,8.6,29.47,North,357,0.0,0.0,47,0.00,,---,0.00,VWS V14.00,2013-01-21 12:17:00,
2013-01-21 06:19:00,26.0,8.6,29.47,North,357,0.0,0.0,47,0.00,,---,0.00,VWS V14.00,2013-01-21 12:19:00,
2013-01-21 06:26:00,25.5,8.6,29.47,North,357,0.0,0.0,48,0.00,,---,0.00,VWS V14.00,2013-01-21 12:26:00,
2013-01-21 06:29:00,25.5,8.6,29.44,NNE,32,0.0,2.2,48,0.00,,---,0.00,VWS V14.00,2013-01-21 12:29:00,
2013-01-21 06:34:00,25.1,8.7,29.44,NNE,25,0.0,2.2,49,0.00,,---,0.00,VWS V14.00,2013-01-21 12:34:00,
2013-01-21 06:35:00,25.1,8.7,29.44,NNE,25,0.0,0.0,49,0.00,,---,0.00,VWS V14.00,2013-01-21 12:35:00,
2013-01-21 06:41:00,25.5,9.0,29.47,NNW,342,0.0,2.2,49,0.00,,---,0.00,VWS V14.00,2013-01-21 12:41:00,
2013-01-21 06:44:00,25.5,9.0,29.47,NNW,329,0.0,2.2,49,0.00,,---,0.00,VWS V14.00,2013-01-21 12:44:00,
2013-01-21 06:47:00,25.7,9.2,29.47,NNW,329,0.0,2.2,49,0.00,,---,0.00,VWS V14.00,2013-01-21 12:47:00,
2013-01-21 06:50:00,25.7,9.2,29.47,NW,312,0.0,0.0,49,0.00,,---,0.00,VWS V14.00,2013-01-21 12:50:00,
2013-01-21 06:57:00,25.7,9.2,29.47,SE,138,0.0,0.0,49,0.00,,---,0.00,VWS V14.00,2013-01-21 12:57:00,
2013-01-21 07:03:00,25.9,9.3,29.47,SSW,210,3.6,3.6,49,0.00,,---,0.00,VWS V14.00,2013-01-21 13:03:00,
2013-01-21 07:06:00,25.9,9.3,29.47,SSW,210,0.0,0.0,49,0.00,,---,0.00,VWS V14.00,2013-01-21 13:06:00,
2013-01-21 07:09:00,25.9,9.3,29.47,SSW,210,0.0,0.0,49,0.00,,---,0.00,VWS V14.00,2013-01-21 13:09:00,
2013-01-21 07:12:00,25.5,9.0,29.47,NNW,340,2.2,2.2,49,0.00,,---,0.00,VWS V14.00,2013-01-21 13:12:00,
2013-01-21 07:15:00,25.0,8.5,29.47,NW,321,0.0,2.2,49,0.00,,---,0.00,VWS V14.00,2013-01-21 13:15:00,
2013-01-21 07:19:00,25.0,8.5,29.47,NNE,12,0.0,2.2,49,0.00,,---,0.00,VWS V14.00,2013-01-21 13:19:00,
2013-01-21 07:27:00,24.4,8.5,29.47,North,353,0.0,0.0,50,0.00,,---,0.00,VWS V14.00,2013-01-21 13:27:00,
2013-01-21 07:33:00,24.4,8.5,29.47,North,2,0.0,2.7,50,0.00,,---,0.00,VWS V14.00,2013-01-21 13:33:00,
2013-01-21 07:34:00,24.8,8.8,29.47,NNE,13,0.0,2.7,50,0.00,,---,0.00,VWS V14.00,2013-01-21 13:34:00,
2013-01-21 07:39:00,25.0,9.0,29.47,North,353,2.7,2.7,50,0.00,,---,0.00,VWS V14.00,2013-01-21 13:39:00,
2013-01-21 07:45:00,25.3,9.3,29.47,North,357,0.0,2.7,50,0.00,,---,0.00,VWS V14.00,2013-01-21 13:45:00,
2013-01-21 07:49:00,25.7,9.2,29.47,North,2,0.0,2.7,49,0.00,,---,0.00,VWS V14.00,2013-01-21 13:49:00,
2013-01-21 07:51:00,25.7,9.2,29.47,North,2,0.0,0.0,49,0.00,,---,0.00,VWS V14.00,2013-01-21 13:51:00,
2013-01-21 07:54:00,25.7,9.2,29.47,North,357,0.0,0.0,49,0.00,,---,0.00,VWS V14.00,2013-01-21 13:54:00,
2013-01-21 08:00:00,26.0,9.5,29.47,NNW,344,3.6,3.6,49,0.00,,---,0.00,VWS V14.00,2013-01-21 14:00:00,
2013-01-21 08:04:00,26.2,9.7,29.47,North,353,0.0,3.6,49,0.00,,---,0.00,VWS V14.00,2013-01-21 14:04:00,
2013-01-21 08:09:00,26.2,9.7,29.47,North,9,0.0,0.0,49,0.00,,---,0.00,VWS V14.00,2013-01-21 14:09:00,
2013-01-21 08:12:00,26.6,9.6,29.47,NNW,341,4.0,4.9,48,0.00,,---,0.00,VWS V14.00,2013-01-21 14:12:00,
2013-01-21 08:15:00,26.6,9.6,29.47,NNW,339,3.1,4.9,48,0.00,,---,0.00,VWS V14.00,2013-01-21 14:15:00,
2013-01-21 08:18:00,26.8,9.7,29.47,SW,228,2.7,4.9,48,0.00,,---,0.00,VWS V14.00,2013-01-21 14:18:00,
2013-01-21 08:19:00,26.8,9.7,29.47,SW,228,2.7,4.9,48,0.00,,---,0.00,VWS V14.00,2013-01-21 14:19:00,
2013-01-21 08:21:00,26.8,9.7,29.47,SW,228,2.7,2.7,48,0.00,,---,0.00,VWS V14.00,2013-01-21 14:21:00,
2013-01-21 08:24:00,26.8,9.7,29.47,NNW,344,2.7,2.7,48,0.00,,---,0.00,VWS V14.00,2013-01-21 14:24:00,
2013-01-21 08:27:00,26.8,9.7,29.47,North,0,2.7,2.7,48,0.00,,---,0.00,VWS V14.00,2013-01-21 14:27:00,
2013-01-21 08:30:00,26.8,9.7,29.47,North,0,2.7,2.7,48,0.00,,---,0.00,VWS V14.00,2013-01-21 14:30:00,
2013-01-21 08:33:00,26.8,9.2,29.47,NNW,341,4.9,4.9,47,0.00,,---,0.00,VWS V14.00,2013-01-21 14:33:00,
2013-01-21 08:34:00,26.6,9.1,29.47,North,350,4.9,4.9,47,0.00,,---,0.00,VWS V14.00,2013-01-21 14:34:00,
2013-01-21 08:36:00,26.6,9.1,29.47,North,357,5.4,5.4,47,0.00,,---,0.00,VWS V14.00,2013-01-21 14:36:00,
2013-01-21 08:42:00,26.2,8.8,29.47,NNW,344,3.6,5.8,47,0.00,,---,0.00,VWS V14.00,2013-01-21 14:42:00,
2013-01-21 08:45:00,26.2,8.8,29.47,NNW,346,4.0,5.8,47,0.00,,---,0.00,VWS V14.00,2013-01-21 14:45:00,
2013-01-21 08:49:00,26.8,9.2,29.47,North,353,4.0,5.8,47,0.00,,---,0.00,VWS V14.00,2013-01-21 14:49:00,
2013-01-21 08:51:00,26.8,9.2,29.47,NNW,343,3.1,4.0,47,0.00,,---,0.00,VWS V14.00,2013-01-21 14:51:00,
2013-01-21 08:57:00,27.7,10.1,29.47,North,353,3.1,5.8,47,0.00,,---,0.00,VWS V14.00,2013-01-21 14:57:00,
2013-01-21 09:00:00,27.7,10.1,29.50,NNW,343,3.1,5.8,47,0.00,,---,0.00,VWS V14.00,2013-01-21 15:00:00,
2013-01-21 09:03:00,27.7,10.1,29.50,NNW,337,2.7,5.8,47,0.00,,---,0.00,VWS V14.00,2013-01-21 15:03:00,
2013-01-21 09:09:00,28.2,10.6,29.50,North,350,2.7,2.7,47,0.00,,---,0.00,VWS V14.00,2013-01-21 15:09:00,
2013-01-21 09:12:00,28.2,10.6,29.50,North,350,2.7,2.7,47,0.00,,---,0.00,VWS V14.00,2013-01-21 15:12:00,
2013-01-21 09:15:00,28.6,10.4,29.50,North,350,2.7,2.7,46,0.00,,---,0.00,VWS V14.00,2013-01-21 15:15:00,
2013-01-21 09:18:00,28.7,10.6,29.50,North,357,2.2,2.7,46,0.00,,---,0.00,VWS V14.00,2013-01-21 15:18:00,
2013-01-21 09:21:00,28.7,10.6,29.50,North,353,5.4,5.4,46,0.00,,---,0.00,VWS V14.00,2013-01-21 15:21:00,
2013-01-21 09:27:00,29.1,10.9,29.50,NNW,333,3.1,5.4,46,0.00,,---,0.00,VWS V14.00,2013-01-21 15:27:00,
2013-01-21 09:30:00,29.3,11.1,29.50,NNW,334,3.1,5.4,46,0.00,,---,0.00,VWS V14.00,2013-01-21 15:30:00,
2013-01-21 09:33:00,29.3,11.1,29.50,NNW,334,3.1,5.4,46,0.00,,---,0.00,VWS V14.00,2013-01-21 15:33:00,
2013-01-21 09:39:00,29.5,10.8,29.50,NNW,340,3.6,4.0,45,0.00,,---,0.00,VWS V14.00,2013-01-21 15:39:00,
2013-01-21 09:45:00,30.0,11.2,29.50,NNW,334,0.0,4.0,45,0.00,,---,0.00,VWS V14.00,2013-01-21 15:45:00,
2013-01-21 09:49:00,30.2,11.4,29.50,NNW,338,0.0,4.0,45,0.00,,---,0.00,VWS V14.00,2013-01-21 15:49:00,
2013-01-21 09:51:00,30.2,11.4,29.50,NNW,337,0.0,0.0,45,0.00,,---,0.00,VWS V14.00,2013-01-21 15:51:00,
2013-01-21 09:54:00,30.5,12.2,29.50,North,353,0.0,0.0,46,0.00,,---,0.00,VWS V14.00,2013-01-21 15:54:00,
2013-01-21 10:00:00,30.9,12.6,29.50,North,5,4.9,4.9,46,0.00,,---,0.00,VWS V14.00,2013-01-21 16:00:00,
2013-01-21 10:03:00,31.1,12.7,29.50,North,357,0.0,4.9,46,0.00,,---,0.00,VWS V14.00,2013-01-21 16:03:00,
2013-01-21 10:04:00,31.1,12.2,29.50,North,357,0.0,4.9,45,0.00,,---,0.00,VWS V14.00,2013-01-21 16:04:00,
2013-01-21 10:12:00,31.1,12.2,29.50,NW,325,2.7,2.7,45,0.00,,---,0.00,VWS V14.00,2013-01-21 16:12:00,
2013-01-21 10:15:00,31.6,12.7,29.50,NW,325,2.7,2.7,45,0.00,,---,0.00,VWS V14.00,2013-01-21 16:15:00,
2013-01-21 10:18:00,31.6,12.7,29.50,North,8,0.0,2.7,45,0.00,,---,0.00,VWS V14.00,2013-01-21 16:18:00,
2013-01-21 10:21:00,31.8,12.9,29.50,WNW,301,0.0,0.0,45,0.00,,---,0.00,VWS V14.00,2013-01-21 16:21:00,
2013-01-21 10:24:00,32.2,13.2,29.50,North,4,0.0,0.0,45,0.00,,---,0.00,VWS V14.00,2013-01-21 16:24:00,
2013-01-21 10:27:00,32.3,12.9,29.50,North,11,0.0,3.1,44,0.00,,---,0.00,VWS V14.00,2013-01-21 16:27:00,
2013-01-21 10:30:00,32.3,12.9,29.50,NE,38,0.0,3.1,44,0.00,,---,0.00,VWS V14.00,2013-01-21 16:30:00,
2013-01-21 10:33:00,32.7,13.7,29.50,NE,40,0.0,3.1,45,0.00,,---,0.00,VWS V14.00,2013-01-21 16:33:00,
2013-01-21 10:34:00,32.7,13.7,29.50,North,0,0.0,3.1,45,0.00,,---,0.00,VWS V14.00,2013-01-21 16:34:00,
2013-01-21 10:42:00,33.2,13.7,29.50,NNW,335,0.0,2.2,44,0.00,,---,0.00,VWS V14.00,2013-01-21 16:42:00,
2013-01-21 10:45:00,33.4,13.9,29.50,South,189,2.2,2.2,44,0.00,,---,0.00,VWS V14.00,2013-01-21 16:45:00,
2013-01-21 10:48:00,33.4,13.9,29.50,South,189,0.0,2.2,44,0.00,,---,0.00,VWS V14.00,2013-01-21 16:48:00,
2013-01-21 10:51:00,33.4,13.9,29.50,South,190,0.0,0.0,44,0.00,,---,0.00,VWS V14.00,2013-01-21 16:51:00,
2013-01-21 10:57:00,34.0,14.4,29.50,SE,141,0.0,0.0,44,0.00,,---,0.00,VWS V14.00,2013-01-21 16:57:00,
2013-01-21 11:00:00,34.0,14.4,29.47,SW,215,0.0,0.0,44,0.00,,---,0.00,VWS V14.00,2013-01-21 17:00:00,
2013-01-21 11:03:00,34.0,14.4,29.47,North,8,0.0,2.7,44,0.00,,---,0.00,VWS V14.00,2013-01-21 17:03:00,
2013-01-21 11:04:00,34.1,14.0,29.47,North,8,0.0,2.7,43,0.00,,---,0.00,VWS V14.00,2013-01-21 17:04:00,
2013-01-21 11:09:00,34.5,14.3,29.47,South,183,2.2,2.2,43,0.00,,---,0.00,VWS V14.00,2013-01-21 17:09:00,
2013-01-21 11:12:00,34.5,14.3,29.47,North,349,2.7,3.1,43,0.00,,---,0.00,VWS V14.00,2013-01-21 17:12:00,
2013-01-21 11:15:00,34.9,14.6,29.47,NNW,338,2.2,3.1,43,0.00,,---,0.00,VWS V14.00,2013-01-21 17:15:00,
2013-01-21 11:18:00,34.9,14.6,29.47,West,278,4.9,4.9,43,0.00,,---,0.00,VWS V14.00,2013-01-21 17:18:00,
2013-01-21 11:21:00,34.9,14.6,29.47,SSW,198,2.7,4.0,43,0.00,,---,0.00,VWS V14.00,2013-01-21 17:21:00,
2013-01-21 11:24:00,35.2,15.0,29.47,SSW,198,2.7,4.0,43,0.00,,---,0.00,VWS V14.00,2013-01-21 17:24:00,
2013-01-21 11:27:00,35.2,15.0,29.47,SSE,159,0.0,4.0,43,0.00,,---,0.00,VWS V14.00,2013-01-21 17:27:00,
2013-01-21 11:33:00,35.9,15.1,29.47,North,357,0.0,4.0,42,0.00,,---,0.00,VWS V14.00,2013-01-21 17:33:00,
2013-01-21 11:34:00,35.9,15.1,29.47,NNW,327,2.7,4.0,42,0.00,,---,0.00,VWS V14.00,2013-01-21 17:34:00,
2013-01-21 11:36:00,35.9,15.1,29.47,NNW,327,2.7,2.7,42,0.00,,---,0.00,VWS V14.00,2013-01-21 17:36:00,
2013-01-21 11:39:00,35.8,14.9,29.47,NNW,327,2.7,2.7,42,0.00,,---,0.00,VWS V14.00,2013-01-21 17:39:00,
2013-01-21 11:42:00,35.6,14.8,29.47,North,353,2.2,3.1,42,0.00,,---,0.00,VWS V14.00,2013-01-21 17:42:00,
2013-01-21 11:45:00,35.9,15.1,29.47,South,181,0.0,3.1,42,0.00,,---,0.00,VWS V14.00,2013-01-21 17:45:00,
2013-01-21 11:48:00,36.1,15.3,29.47,South,181,0.0,3.1,42,0.00,,---,0.00,VWS V14.00,2013-01-21 17:48:00,
2013-01-21 11:49:00,36.1,15.3,29.47,South,181,0.0,3.1,42,0.00,,---,0.00,VWS V14.00,2013-01-21 17:49:00,
2013-01-21 11:54:00,36.1,15.3,29.47,West,265,0.0,3.1,42,0.00,,---,0.00,VWS V14.00,2013-01-21 17:54:00,
2013-01-21 11:57:00,36.7,15.8,29.47,South,189,2.7,3.1,42,0.00,,---,0.00,VWS V14.00,2013-01-21 17:57:00,
2013-01-21 12:00:00,36.7,15.8,29.47,North,357,2.7,3.1,42,0.00,,---,0.00,VWS V14.00,2013-01-21 18:00:00,
2013-01-21 12:03:00,36.7,15.8,29.47,NNW,341,3.1,3.1,42,0.00,,---,0.00,VWS V14.00,2013-01-21 18:03:00,
2013-01-21 12:04:00,36.7,15.8,29.47,NNW,341,3.1,3.1,42,0.00,,---,0.00,VWS V14.00,2013-01-21 18:04:00,
2013-01-21 12:09:00,37.0,16.1,29.47,North,8,3.6,3.6,42,0.00,,---,0.00,VWS V14.00,2013-01-21 18:09:00,
2013-01-21 12:12:00,36.8,15.4,29.44,NW,326,3.6,3.6,41,0.00,,---,0.00,VWS V14.00,2013-01-21 18:12:00,
2013-01-21 12:19:00,37.2,15.7,29.44,NNW,327,2.2,3.6,41,0.00,,---,0.00,VWS V14.00,2013-01-21 18:19:00,
2013-01-21 12:22:00,37.4,15.9,29.44,SW,222,2.7,2.7,41,0.00,,---,0.00,VWS V14.00,2013-01-21 18:22:00,
2013-01-21 12:25:00,37.4,15.9,29.44,NNE,14,0.0,2.7,41,0.00,,---,0.00,VWS V14.00,2013-01-21 18:25:00,
2013-01-21 12:28:00,37.4,15.9,29.44,NNE,13,2.2,2.7,41,0.00,,---,0.00,VWS V14.00,2013-01-21 18:28:00,
2013-01-21 12:31:00,37.6,16.0,29.44,East,86,0.0,2.7,41,0.00,,---,0.00,VWS V14.00,2013-01-21 18:31:00,
2013-01-21 12:34:00,37.9,16.3,29.44,WSW,254,0.0,2.7,41,0.00,,---,0.00,VWS V14.00,2013-01-21 18:34:00,
2013-01-21 12:37:00,37.9,16.3,29.44,NNE,18,0.0,0.0,41,0.00,,---,0.00,VWS V14.00,2013-01-21 18:37:00,
2013-01-21 12:43:00,38.3,16.1,29.44,North,357,0.0,2.7,40,0.00,,---,0.00,VWS V14.00,2013-01-21 18:43:00,
2013-01-21 12:46:00,38.3,16.1,29.44,North,357,0.0,2.7,40,0.00,,---,0.00,VWS V14.00,2013-01-21 18:46:00,
2013-01-21 12:49:00,38.5,16.3,29.44,SSE,165,0.0,2.7,40,0.00,,---,0.00,VWS V14.00,2013-01-21 18:49:00,
2013-01-21 12:52:00,38.6,16.4,29.44,NNW,341,2.7,3.1,40,0.00,,---,0.00,VWS V14.00,2013-01-21 18:52:00,
2013-01-21 12:55:00,38.6,16.4,29.44,WSW,237,0.0,3.1,40,0.00,,---,0.00,VWS V14.00,2013-01-21 18:55:00,
2013-01-21 13:01:00,39.0,16.7,29.44,South,171,0.0,3.1,40,0.00,,---,0.00,VWS V14.00,2013-01-21 19:01:00,
2013-01-21 13:04:00,39.4,17.1,29.44,NNW,346,2.7,3.1,40,0.00,,---,0.00,VWS V14.00,2013-01-21 19:04:00,
2013-01-21 13:10:00,39.5,17.2,29.44,NNE,14,0.0,0.0,40,0.00,,---,0.00,VWS V14.00,2013-01-21 19:10:00,
2013-01-21 13:16:00,39.9,17.0,29.44,NNW,345,3.1,3.1,39,0.00,,---,0.00,VWS V14.00,2013-01-21 19:16:00,
2013-01-21 13:19:00,39.9,17.0,29.44,North,353,0.0,3.1,39,0.00,,---,0.00,VWS V14.00,2013-01-21 19:19:00,
2013-01-21 13:25:00,39.9,17.0,29.41,NNE,18,0.0,3.6,39,0.00,,---,0.00,VWS V14.00,2013-01-21 19:25:00,
2013-01-21 13:28:00,39.9,17.0,29.41,North,353,0.0,3.6,39,0.00,,---,0.00,VWS V14.00,2013-01-21 19:28:00,
2013-01-21 13:31:00,40.3,17.3,29.41,North,353,0.0,3.6,39,0.00,,---,0.00,VWS V14.00,2013-01-21 19:31:00,
2013-01-21 13:34:00,40.3,17.3,29.41,North,4,0.0,3.6,39,0.00,,---,0.00,VWS V14.00,2013-01-21 19:34:00,
2013-01-21 13:40:00,40.6,17.6,29.41,North,0,4.9,4.9,39,0.00,,---,0.00,VWS V14.00,2013-01-21 19:40:00,
2013-01-21 13:43:00,40.8,17.8,29.41,North,357,0.0,4.9,39,0.00,,---,0.00,VWS V14.00,2013-01-21 19:43:00,
2013-01-21 13:49:00,40.8,17.8,29.41,NE,46,0.0,4.9,39,0.00,,---,0.00,VWS V14.00,2013-01-21 19:49:00,
2013-01-21 13:52:00,40.6,17.6,29.41,SSW,212,0.0,0.0,39,0.00,,---,0.00,VWS V14.00,2013-01-21 19:52:00,
2013-01-21 13:55:00,40.4,17.5,29.41,SW,216,0.0,0.0,39,0.00,,---,0.00,VWS V14.00,2013-01-21 19:55:00,
2013-01-21 13:58:00,40.4,17.5,29.41,SW,216,0.0,0.0,39,0.00,,---,0.00,VWS V14.00,2013-01-21 19:58:00,
2013-01-21 14:01:00,40.4,17.5,29.41,North,5,0.0,2.7,39,0.00,,---,0.00,VWS V14.00,2013-01-21 20:01:00,
2013-01-21 14:04:00,40.8,17.2,29.41,West,264,0.0,2.7,38,0.00,,---,0.00,VWS V14.00,2013-01-21 20:04:00,
2013-01-21 14:07:00,41.2,18.1,29.41,North,11,0.0,0.0,39,0.00,,---,0.00,VWS V14.00,2013-01-21 20:07:00,
2013-01-21 14:10:00,41.3,17.7,29.41,NNW,344,3.6,3.6,38,0.00,,---,0.00,VWS V14.00,2013-01-21 20:10:00,
2013-01-21 14:16:00,41.7,18.6,29.41,NNE,16,0.0,3.6,39,0.00,,---,0.00,VWS V14.00,2013-01-21 20:16:00,
2013-01-21 14:19:00,42.1,18.3,29.41,NNE,16,0.0,3.6,38,0.00,,---,0.00,VWS V14.00,2013-01-21 20:19:00,
2013-01-21 14:25:00,42.1,18.9,29.41,South,172,0.0,0.0,39,0.00,,---,0.00,VWS V14.00,2013-01-21 20:25:00,
2013-01-21 14:31:00,42.1,18.3,29.41,South,181,0.0,0.0,38,0.00,,---,0.00,VWS V14.00,2013-01-21 20:31:00,
2013-01-21 14:34:00,42.2,18.5,29.41,NNW,334,2.7,3.1,38,0.00,,---,0.00,VWS V14.00,2013-01-21 20:34:00,
2013-01-21 14:37:00,42.2,18.5,29.41,North,349,2.7,2.7,38,0.00,,---,0.00,VWS V14.00,2013-01-21 20:37:00,
2013-01-21 14:43:00,42.1,18.3,29.41,NW,307,0.0,2.7,38,0.00,,---,0.00,VWS V14.00,2013-01-21 20:43:00,
2013-01-21 14:46:00,42.4,18.6,29.41,North,0,0.0,2.7,38,0.00,,---,0.00,VWS V14.00,2013-01-21 20:46:00,
2013-01-21 14:49:00,42.8,19.0,29.41,NNW,340,2.2,2.7,38,0.00,,---,0.00,VWS V14.00,2013-01-21 20:49:00,
2013-01-21 14:55:00,42.6,18.8,29.41,NW,308,0.0,2.2,38,0.00,,---,0.00,VWS V14.00,2013-01-21 20:55:00,
2013-01-21 15:01:00,42.6,18.8,29.41,NNE,16,0.0,2.2,38,0.00,,---,0.00,VWS V14.00,2013-01-21 21:01:00,
2013-01-21 15:04:00,42.8,19.0,29.41,North,0,0.0,2.2,38,0.00,,---,0.00,VWS V14.00,2013-01-21 21:04:00,
2013-01-21 15:07:00,42.8,19.0,29.41,North,0,0.0,0.0,38,0.00,,---,0.00,VWS V14.00,2013-01-21 21:07:00,
2013-01-21 15:13:00,42.6,18.8,29.41,NNE,14,0.0,2.7,38,0.00,,---,0.00,VWS V14.00,2013-01-21 21:13:00,
2013-01-21 15:19:00,42.6,18.8,29.41,North,353,0.0,3.6,38,0.00,,---,0.00,VWS V14.00,2013-01-21 21:19:00,
2013-01-21 15:22:00,42.4,18.6,29.41,NNW,335,0.0,0.0,38,0.00,,---,0.00,VWS V14.00,2013-01-21 21:22:00,
2013-01-21 15:28:00,42.2,18.5,29.41,ESE,104,0.0,5.8,38,0.00,,---,0.00,VWS V14.00,2013-01-21 21:28:00,
2013-01-21 15:32:00,42.1,18.3,29.41,North,0,6.3,6.3,38,0.00,,---,0.00,VWS V14.00,2013-01-21 21:32:00,
2013-01-21 15:34:00,42.1,18.3,29.41,North,357,3.1,6.3,38,0.00,,---,0.00,VWS V14.00,2013-01-21 21:34:00,
2013-01-21 15:35:00,42.1,18.3,29.41,North,357,3.1,3.1,38,0.00,,---,0.00,VWS V14.00,2013-01-21 21:35:00,
2013-01-21 15:41:00,41.5,17.8,29.41,WNW,294,3.6,3.6,38,0.00,,---,0.00,VWS V14.00,2013-01-21 21:41:00,
2013-01-21 15:44:00,41.5,17.8,29.41,North,6,0.0,3.6,38,0.00,,---,0.00,VWS V14.00,2013-01-21 21:44:00,
2013-01-21 15:47:00,41.3,17.7,29.41,North,6,0.0,3.6,38,0.00,,---,0.00,VWS V14.00,2013-01-21 21:47:00,
2013-01-21 15:49:00,41.0,17.3,29.41,North,6,0.0,3.6,38,0.00,,---,0.00,VWS V14.00,2013-01-21 21:49:00,
2013-01-21 15:50:00,41.0,17.3,29.41,North,6,0.0,0.0,38,0.00,,---,0.00,VWS V14.00,2013-01-21 21:50:00,
2013-01-21 15:56:00,40.8,17.8,29.41,North,7,0.0,0.0,39,0.00,,---,0.00,VWS V14.00,2013-01-21 21:56:00,
2013-01-21 15:59:00,40.8,17.8,29.41,ENE,59,0.0,2.7,39,0.00,,---,0.00,VWS V14.00,2013-01-21 21:59:00,
2013-01-21 16:02:00,40.1,17.1,29.41,NW,315,2.7,2.7,39,0.00,,---,0.00,VWS V14.00,2013-01-21 22:02:00,
2013-01-21 16:04:00,40.1,17.1,29.41,NNE,19,0.0,2.7,39,0.00,,---,0.00,VWS V14.00,2013-01-21 22:04:00,
2013-01-21 16:08:00,39.5,16.6,29.41,NNE,19,0.0,0.0,39,0.00,,---,0.00,VWS V14.00,2013-01-21 22:08:00,
2013-01-21 16:14:00,39.2,16.3,29.41,North,10,3.1,3.1,39,0.00,,---,0.00,VWS V14.00,2013-01-21 22:14:00,
2013-01-21 16:17:00,39.2,16.3,29.41,North,10,0.0,3.1,39,0.00,,---,0.00,VWS V14.00,2013-01-21 22:17:00,
2013-01-21 16:20:00,39.2,16.3,29.41,North,353,2.2,3.1,39,0.00,,---,0.00,VWS V14.00,2013-01-21 22:20:00,
2013-01-21 16:23:00,38.5,15.7,29.41,North,353,2.2,2.2,39,0.00,,---,0.00,VWS V14.00,2013-01-21 22:23:00,
2013-01-21 16:29:00,37.9,15.2,29.41,North,357,4.0,4.0,39,0.00,,---,0.00,VWS V14.00,2013-01-21 22:29:00,
2013-01-21 16:34:00,37.7,15.6,29.41,North,1,0.0,4.0,40,0.00,,---,0.00,VWS V14.00,2013-01-21 22:34:00,
2013-01-21 16:35:00,37.7,15.6,29.41,North,1,0.0,0.0,40,0.00,,---,0.00,VWS V14.00,2013-01-21 22:35:00,
2013-01-21 16:41:00,37.6,15.4,29.41,SSW,195,0.0,0.0,40,0.00,,---,0.00,VWS V14.00,2013-01-21 22:41:00,
2013-01-21 16:44:00,37.6,15.4,29.41,WSW,241,0.0,3.1,40,0.00,,---,0.00,VWS V14.00,2013-01-21 22:44:00,
2013-01-21 16:49:00,37.4,15.3,29.41,NW,314,3.6,3.6,40,0.00,,---,0.00,VWS V14.00,2013-01-21 22:49:00,
2013-01-21 16:53:00,37.4,15.3,29.41,NE,34,0.0,3.6,40,0.00,,---,0.00,VWS V14.00,2013-01-21 22:53:00,
2013-01-21 16:59:00,37.0,15.0,29.41,North,2,3.1,3.6,40,0.00,,---,0.00,VWS V14.00,2013-01-21 22:59:00,
2013-01-21 17:04:00,37.0,15.0,29.41,NNE,19,0.0,3.6,40,0.00,,---,0.00,VWS V14.00,2013-01-21 23:04:00,
2013-01-21 17:05:00,37.0,15.0,29.41,NNE,19,0.0,0.0,40,0.00,,---,0.00,VWS V14.00,2013-01-21 23:05:00,
2013-01-21 17:08:00,37.0,15.0,29.41,NNE,25,0.0,0.0,40,0.00,,---,0.00,VWS V14.00,2013-01-21 23:08:00,
2013-01-21 17:14:00,36.1,14.7,29.41,SSW,209,2.7,2.7,41,0.00,,---,0.00,VWS V14.00,2013-01-21 23:14:00,
2013-01-21 17:17:00,36.1,14.7,29.41,SSW,209,2.7,2.7,41,0.00,,---,0.00,VWS V14.00,2013-01-21 23:17:00,
2013-01-21 17:19:00,35.8,14.4,29.41,West,260,0.0,2.7,41,0.00,,---,0.00,VWS V14.00,2013-01-21 23:19:00,
2013-01-21 17:23:00,35.6,14.2,29.41,West,260,0.0,0.0,41,0.00,,---,0.00,VWS V14.00,2013-01-21 23:23:00,
2013-01-21 17:26:00,35.4,14.1,29.41,West,260,0.0,0.0,41,0.00,,---,0.00,VWS V14.00,2013-01-21 23:26:00,
2013-01-21 17:32:00,35.0,14.3,29.41,North,357,0.0,0.0,42,0.00,,---,0.00,VWS V14.00,2013-01-21 23:32:00,
2013-01-21 17:35:00,35.0,14.3,29.41,North,357,0.0,0.0,42,0.00,,---,0.00,VWS V14.00,2013-01-21 23:35:00,
2013-01-21 17:38:00,34.7,13.9,29.41,North,357,3.1,3.1,42,0.00,,---,0.00,VWS V14.00,2013-01-21 23:38:00,
2013-01-21 17:41:00,34.7,13.9,29.41,NW,306,3.1,3.1,42,0.00,,---,0.00,VWS V14.00,2013-01-21 23:41:00,
2013-01-21 17:47:00,34.1,13.5,29.41,North,353,0.0,3.1,42,0.00,,---,0.00,VWS V14.00,2013-01-21 23:47:00,
2013-01-21 17:49:00,34.1,13.5,29.41,NNE,15,0.0,3.1,42,0.00,,---,0.00,VWS V14.00,2013-01-21 23:49:00,
2013-01-21 17:53:00,34.1,13.5,29.41,North,8,0.0,4.0,42,0.00,,---,0.00,VWS V14.00,2013-01-21 23:53:00,
2013-01-21 17:59:00,34.0,13.3,29.41,North,357,2.2,4.0,42,0.00,,---,0.00,VWS V14.00,2013-01-21 23:59:00,
2013-01-21 18:02:00,33.6,13.0,29.41,NNW,343,3.6,4.0,42,0.00,,---,0.00,VWS V14.00,2013-01-22 00:02:00,
2013-01-21 18:04:00,33.6,13.0,29.41,NNW,345,2.7,4.0,42,0.00,,---,0.00,VWS V14.00,2013-01-22 00:04:00,
2013-01-21 18:11:00,33.4,13.3,29.41,NNW,346,3.6,3.6,43,0.00,,---,0.00,VWS V14.00,2013-01-22 00:11:00,
2013-01-21 18:14:00,33.4,13.3,29.41,NNW,346,3.6,3.6,43,0.00,,---,0.00,VWS V14.00,2013-01-22 00:14:00,
2013-01-21 18:17:00,33.2,13.2,29.41,NNW,335,4.0,4.0,43,0.00,,---,0.00,VWS V14.00,2013-01-22 00:17:00,
2013-01-21 18:19:00,33.2,13.2,29.41,NNW,346,3.6,4.0,43,0.00,,---,0.00,VWS V14.00,2013-01-22 00:19:00,
2013-01-21 18:26:00,33.1,12.5,29.41,NNW,340,2.2,3.6,42,0.00,,---,0.00,VWS V14.00,2013-01-22 00:26:00,
2013-01-21 18:32:00,32.9,12.3,29.41,North,357,0.0,3.6,42,0.00,,---,0.00,VWS V14.00,2013-01-22 00:32:00,
2013-01-21 18:34:00,32.9,12.3,29.41,North,357,0.0,3.6,42,0.00,,---,0.00,VWS V14.00,2013-01-22 00:34:00,
2013-01-21 18:38:00,32.7,12.2,29.41,North,353,2.7,2.7,42,0.00,,---,0.00,VWS V14.00,2013-01-22 00:38:00,
2013-01-21 18:41:00,32.5,12.0,29.41,North,353,3.1,3.1,42,0.00,,---,0.00,VWS V14.00,2013-01-22 00:41:00,
2013-01-21 18:44:00,32.5,12.0,29.41,North,353,3.1,3.1,42,0.00,,---,0.00,VWS V14.00,2013-01-22 00:44:00,
2013-01-21 18:47:00,32.3,11.8,29.41,North,353,0.0,3.1,42,0.00,,---,0.00,VWS V14.00,2013-01-22 00:47:00,
2013-01-21 18:49:00,32.3,11.8,29.41,North,353,0.0,3.1,42,0.00,,---,0.00,VWS V14.00,2013-01-22 00:49:00,
2013-01-21 18:50:00,32.3,11.8,29.41,North,353,2.7,2.7,42,0.00,,---,0.00,VWS V14.00,2013-01-22 00:50:00,
2013-01-21 18:53:00,32.0,11.5,29.41,NNW,345,4.0,4.0,42,0.00,,---,0.00,VWS V14.00,2013-01-22 00:53:00,
2013-01-21 18:56:00,32.0,12.0,29.41,NNW,345,4.0,4.0,43,0.00,,---,0.00,VWS V14.00,2013-01-22 00:56:00,
2013-01-21 19:02:00,31.8,11.9,29.41,NNW,344,0.0,4.0,43,0.00,,---,0.00,VWS V14.00,2013-01-22 01:02:00,
2013-01-21 19:04:00,31.8,11.9,29.41,North,357,2.2,4.0,43,0.00,,---,0.00,VWS V14.00,2013-01-22 01:04:00,
2013-01-21 19:05:00,31.8,11.9,29.41,North,357,2.2,2.2,43,0.00,,---,0.00,VWS V14.00,2013-01-22 01:05:00,
2013-01-21 19:11:00,31.6,11.7,29.41,NNW,346,0.0,2.7,43,0.00,,---,0.00,VWS V14.00,2013-01-22 01:11:00,
2013-01-21 19:14:00,31.6,11.7,29.41,North,0,2.2,2.7,43,0.00,,---,0.00,VWS V14.00,2013-01-22 01:14:00,
2013-01-21 19:19:00,31.4,11.5,29.41,NNW,343,0.0,2.7,43,0.00,,---,0.00,VWS V14.00,2013-01-22 01:19:00,
2013-01-21 19:26:00,31.1,11.2,29.41,North,353,3.1,3.1,43,0.00,,---,0.00,VWS V14.00,2013-01-22 01:26:00,
2013-01-21 19:29:00,30.9,11.6,29.41,North,353,3.1,3.1,44,0.00,,---,0.00,VWS V14.00,2013-01-22 01:29:00,
2013-01-21 19:32:00,30.9,11.6,29.41,NNW,345,2.7,3.1,44,0.00,,---,0.00,VWS V14.00,2013-01-22 01:32:00,
2013-01-21 19:34:00,30.9,11.6,29.41,NNW,345,2.7,3.1,44,0.00,,---,0.00,VWS V14.00,2013-01-22 01:34:00,
2013-01-21 19:35:00,30.9,11.6,29.41,NNW,345,2.7,2.7,44,0.00,,---,0.00,VWS V14.00,2013-01-22 01:35:00,
2013-01-21 19:41:00,30.5,11.2,29.41,NNW,336,3.1,3.1,44,0.00,,---,0.00,VWS V14.00,2013-01-22 01:41:00,
2013-01-21 19:44:00,30.5,11.2,29.41,NNW,344,3.1,3.1,44,0.00,,---,0.00,VWS V14.00,2013-01-22 01:44:00,
2013-01-21 19:47:00,30.5,11.2,29.41,NNW,344,3.1,3.1,44,0.00,,---,0.00,VWS V14.00,2013-01-22 01:47:00,
2013-01-21 19:49:00,30.5,11.2,29.41,NNW,344,3.1,3.1,44,0.00,,---,0.00,VWS V14.00,2013-01-22 01:49:00,
2013-01-21 19:53:00,30.5,11.2,29.41,NNW,338,3.1,3.1,44,0.00,,---,0.00,VWS V14.00,2013-01-22 01:53:00,
2013-01-21 19:59:00,30.4,11.1,29.41,NNW,342,2.2,3.1,44,0.00,,---,0.00,VWS V14.00,2013-01-22 01:59:00,
2013-01-21 20:02:00,30.4,11.1,29.41,North,353,4.0,4.0,44,0.00,,---,0.00,VWS V14.00,2013-01-22 02:02:00,
2013-01-21 20:04:00,30.4,11.1,29.41,NNW,345,3.1,4.0,44,0.00,,---,0.00,VWS V14.00,2013-01-22 02:04:00,
2013-01-21 20:05:00,30.4,11.1,29.41,NNW,345,3.1,3.1,44,0.00,,---,0.00,VWS V14.00,2013-01-22 02:05:00,
2013-01-21 20:12:00,30.4,11.1,29.41,North,350,3.6,3.6,44,0.00,,---,0.00,VWS V14.00,2013-01-22 02:12:00,
2013-01-21 20:18:00,30.4,11.6,29.41,North,353,4.0,4.0,45,0.00,,---,0.00,VWS V14.00,2013-01-22 02:18:00,
2013-01-21 20:19:00,30.4,11.6,29.41,North,353,4.0,4.0,45,0.00,,---,0.00,VWS V14.00,2013-01-22 02:19:00,
2013-01-21 20:24:00,30.4,11.6,29.41,NW,318,4.0,4.0,45,0.00,,---,0.00,VWS V14.00,2013-01-22 02:24:00,
2013-01-21 20:30:00,30.2,11.4,29.44,NNW,342,4.0,4.0,45,0.00,,---,0.00,VWS V14.00,2013-01-22 02:30:00,
2013-01-21 20:33:00,30.2,11.4,29.44,NNW,342,4.0,4.0,45,0.00,,---,0.00,VWS V14.00,2013-01-22 02:33:00,
2013-01-21 20:34:00,30.2,11.4,29.44,North,5,6.3,6.3,45,0.00,,---,0.00,VWS V14.00,2013-01-22 02:34:00,
2013-01-21 20:42:00,30.2,11.4,29.44,North,353,2.7,6.3,45,0.00,,---,0.00,VWS V14.00,2013-01-22 02:42:00,
2013-01-21 20:48:00,30.2,11.4,29.44,North,0,3.1,6.3,45,0.00,,---,0.00,VWS V14.00,2013-01-22 02:48:00,
2013-01-21 20:49:00,30.2,11.4,29.44,North,353,3.1,6.3,45,0.00,,---,0.00,VWS V14.00,2013-01-22 02:49:00,
2013-01-21 20:51:00,30.2,11.4,29.44,North,353,3.1,3.1,45,0.00,,---,0.00,VWS V14.00,2013-01-22 02:51:00,
2013-01-21 20:54:00,29.8,11.1,29.44,North,353,3.1,3.1,45,0.00,,---,0.00,VWS V14.00,2013-01-22 02:54:00,
2013-01-21 21:00:00,29.8,11.1,29.44,NNW,340,4.0,4.0,45,0.00,,---,0.00,VWS V14.00,2013-01-22 03:00:00,
2013-01-21 21:03:00,29.6,10.9,29.44,NNW,340,4.0,4.0,45,0.00,,---,0.00,VWS V14.00,2013-01-22 03:03:00,
2013-01-21 21:06:00,29.3,10.1,29.44,NNW,340,4.0,4.0,44,0.00,,---,0.00,VWS V14.00,2013-01-22 03:06:00,
2013-01-21 21:09:00,29.3,10.1,29.44,NNW,344,8.1,8.1,44,0.00,,---,0.00,VWS V14.00,2013-01-22 03:09:00,
2013-01-21 21:15:00,29.1,9.9,29.44,NNW,336,2.2,8.1,44,0.00,,---,0.00,VWS V14.00,2013-01-22 03:15:00,
2013-01-21 21:18:00,28.9,9.8,29.44,NNW,336,2.2,8.1,44,0.00,,---,0.00,VWS V14.00,2013-01-22 03:18:00,
2013-01-21 21:19:00,28.9,9.8,29.44,NNW,336,2.2,8.1,44,0.00,,---,0.00,VWS V14.00,2013-01-22 03:19:00,
2013-01-21 21:21:00,28.7,9.6,29.44,NNW,343,5.4,5.4,44,0.00,,---,0.00,VWS V14.00,2013-01-22 03:21:00,
2013-01-21 21:27:00,28.6,9.4,29.44,NNW,340,3.1,7.2,44,0.00,,---,0.00,VWS V14.00,2013-01-22 03:27:00,
2013-01-21 21:33:00,28.4,9.8,29.44,NW,322,5.4,7.2,45,0.00,,---,0.00,VWS V14.00,2013-01-22 03:33:00,
2013-01-21 21:39:00,28.4,9.8,29.44,NNW,329,3.1,4.0,45,0.00,,---,0.00,VWS V14.00,2013-01-22 03:39:00,
2013-01-21 21:42:00,28.4,9.8,29.44,NNW,329,3.1,4.0,45,0.00,,---,0.00,VWS V14.00,2013-01-22 03:42:00,
2013-01-21 21:45:00,28.2,9.6,29.44,NNW,342,2.2,4.0,45,0.00,,---,0.00,VWS V14.00,2013-01-22 03:45:00,
2013-01-21 21:49:00,28.2,9.6,29.44,NNW,337,4.9,4.9,45,0.00,,---,0.00,VWS V14.00,2013-01-22 03:49:00,
2013-01-21 21:57:00,28.2,9.6,29.44,NNW,341,3.1,4.9,45,0.00,,---,0.00,VWS V14.00,2013-01-22 03:57:00,
2013-01-21 22:00:00,28.0,9.4,29.44,NNW,344,4.0,4.9,45,0.00,,---,0.00,VWS V14.00,2013-01-22 04:00:00,
2013-01-21 22:03:00,27.8,9.3,29.44,NNW,344,4.0,4.9,45,0.00,,---,0.00,VWS V14.00,2013-01-22 04:03:00,
2013-01-21 22:04:00,27.8,9.3,29.44,NNW,332,3.1,4.9,45,0.00,,---,0.00,VWS V14.00,2013-01-22 04:04:00,
2013-01-21 22:06:00,27.8,9.8,29.44,North,353,5.4,5.4,46,0.00,,---,0.00,VWS V14.00,2013-01-22 04:06:00,
2013-01-21 22:09:00,27.8,9.8,29.44,NNW,327,2.7,5.4,46,0.00,,---,0.00,VWS V14.00,2013-01-22 04:09:00,
2013-01-21 22:12:00,27.8,9.8,29.44,NW,312,3.1,5.4,46,0.00,,---,0.00,VWS V14.00,2013-01-22 04:12:00,
2013-01-21 22:18:00,27.7,9.1,29.44,NNW,337,3.1,5.4,45,0.00,,---,0.00,VWS V14.00,2013-01-22 04:18:00,
2013-01-21 22:19:00,27.7,9.1,29.44,NNE,21,2.7,5.4,45,0.00,,---,0.00,VWS V14.00,2013-01-22 04:19:00,
2013-01-21 22:21:00,27.5,8.9,29.44,NNE,21,2.7,2.7,45,0.00,,---,0.00,VWS V14.00,2013-01-22 04:21:00,
2013-01-21 22:27:00,27.3,8.8,29.47,NNE,21,2.7,2.7,45,0.00,,---,0.00,VWS V14.00,2013-01-22 04:27:00,
2013-01-21 22:33:00,26.2,8.3,29.47,NNW,330,2.7,2.7,46,0.00,,---,0.00,VWS V14.00,2013-01-22 04:33:00,
2013-01-21 22:34:00,26.2,8.3,29.47,NNW,338,4.0,4.0,46,0.00,,---,0.00,VWS V14.00,2013-01-22 04:34:00,
2013-01-21 22:36:00,26.0,8.1,29.47,NNW,338,4.0,4.0,46,0.00,,---,0.00,VWS V14.00,2013-01-22 04:36:00,
2013-01-21 22:42:00,26.0,8.1,29.47,NNW,338,4.0,4.0,46,0.00,,---,0.00,VWS V14.00,2013-01-22 04:42:00,
2013-01-21 22:45:00,26.2,8.3,29.47,NNW,338,4.0,4.0,46,0.00,,---,0.00,VWS V14.00,2013-01-22 04:45:00,
2013-01-21 22:48:00,26.2,8.3,29.47,North,353,0.0,4.0,46,0.00,,---,0.00,VWS V14.00,2013-01-22 04:48:00,
2013-01-21 22:49:00,26.2,8.3,29.47,North,353,0.0,4.0,46,0.00,,---,0.00,VWS V14.00,2013-01-22 04:49:00,
2013-01-21 22:51:00,26.2,8.3,29.47,North,353,0.0,0.0,46,0.00,,---,0.00,VWS V14.00,2013-01-22 04:51:00,
2013-01-21 22:54:00,26.2,8.3,29.47,North,353,0.0,0.0,46,0.00,,---,0.00,VWS V14.00,2013-01-22 04:54:00,
2013-01-21 22:57:00,26.4,8.4,29.47,North,353,0.0,0.0,46,0.00,,---,0.00,VWS V14.00,2013-01-22 04:57:00,
2013-01-21 23:00:00,26.4,8.4,29.47,NW,311,0.0,0.0,46,0.00,,---,0.00,VWS V14.00,2013-01-22 05:00:00,
2013-01-21 23:03:00,26.4,8.4,29.44,NNW,343,0.0,0.0,46,0.00,,---,0.00,VWS V14.00,2013-01-22 05:03:00,
2013-01-21 23:04:00,26.4,8.4,29.44,North,350,0.0,0.0,46,0.00,,---,0.00,VWS V14.00,2013-01-22 05:04:00,
2013-01-21 23:12:00,26.2,7.8,29.44,North,353,0.0,0.0,45,0.00,,---,0.00,VWS V14.00,2013-01-22 05:12:00,
2013-01-21 23:15:00,26.2,7.8,29.44,North,353,0.0,0.0,45,0.00,,---,0.00,VWS V14.00,2013-01-22 05:15:00,
2013-01-21 23:19:00,26.2,7.8,29.44,North,353,0.0,0.0,45,0.00,,---,0.00,VWS V14.00,2013-01-22 05:19:00,
2013-01-21 23:21:00,26.2,7.8,29.44,North,353,0.0,0.0,45,0.00,,---,0.00,VWS V14.00,2013-01-22 05:21:00,
2013-01-21 23:24:00,26.0,7.6,29.44,North,357,0.0,0.0,45,0.00,,---,0.00,VWS V14.00,2013-01-22 05:24:00,
2013-01-21 23:27:00,25.7,7.3,29.44,North,357,0.0,0.0,45,0.00,,---,0.00,VWS V14.00,2013-01-22 05:27:00,
2013-01-21 23:30:00,25.3,7.0,29.44,North,0,0.0,0.0,45,0.00,,---,0.00,VWS V14.00,2013-01-22 05:30:00,
2013-01-21 23:36:00,24.8,6.5,29.44,NNW,338,0.0,0.0,45,0.00,,---,0.00,VWS V14.00,2013-01-22 05:36:00,
2013-01-21 23:39:00,24.8,6.5,29.44,NNW,342,0.0,0.0,45,0.00,,---,0.00,VWS V14.00,2013-01-22 05:39:00,
2013-01-21 23:42:00,24.4,6.1,29.44,NNW,344,0.0,0.0,45,0.00,,---,0.00,VWS V14.00,2013-01-22 05:42:00,
2013-01-21 23:45:00,24.4,6.1,29.44,North,353,0.0,0.0,45,0.00,,---,0.00,VWS V14.00,2013-01-22 05:45:00,
2013-01-21 23:48:00,24.8,6.5,29.44,North,353,0.0,0.0,45,0.00,,---,0.00,VWS V14.00,2013-01-22 05:48:00,
2013-01-21 23:49:00,24.8,6.5,29.44,North,349,2.2,2.2,45,0.00,,---,0.00,VWS V14.00,2013-01-22 05:49:00,
2013-01-21 23:51:00,25.0,6.6,29.44,North,349,0.0,2.2,45,0.00,,---,0.00,VWS V14.00,2013-01-22 05:51:00,
2013-01-21 23:54:00,25.0,6.6,29.44,North,349,0.0,2.2,45,0.00,,---,0.00,VWS V14.00,2013-01-22 05:54:00,
2013-01-21 23:57:00,25.1,6.8,29.44,North,349,0.0,2.2,45,0.00,,---,0.00,VWS V14.00,2013-01-22 05:57:00,